Preview of NWS' New Version of Forecast
This preview is not operational and should not be used for support decisions.

Regional Weather Roundup (RWR)

Issued by National Weather Service (NWS)

                            
000
ASUS45 KBOI 171610
RWRID 

IDAHO REGIONAL WEATHER ROUNDUP
NATIONAL WEATHER SERVICE BOISE ID
1000 AM MDT WED APR 17 2019

NOTE: "FAIR" INDICATES FEW OR NO CLOUDS BELOW 12000 FEET
WITH NO SIGNIFICANT WEATHER AND/OR OBSTRUCTIONS TO VISIBILITY

IDZ012-014-171700-
SOUTHWEST IDAHO

  
CITY           SKY/WX    TMP DP  RH WIND       PRES   REMARKS
BOISE          CLOUDY    50  36  58 CALM      30.21S                  
CALDWELL       PTSUNNY   49  40  71 W7        30.22S                  
MOUNTAIN HOME  PTSUNNY   45  40  85 NW6       30.21R                  
$$

IDZ016-017-171700-
SOUTHCENTRAL IDAHO

  
CITY           SKY/WX    TMP DP  RH WIND       PRES   REMARKS
BURLEY         CLOUDY    48  33  56 W13G20    30.18R                  
JEROME         CLOUDY    46  34  62 SW15      30.20R                  
TWIN FALLS     CLOUDY    51  33  50 W17       30.20R                  
$$

IDZ019>023-171700-
SOUTHEAST IDAHO

  
CITY           SKY/WX    TMP DP  RH WIND       PRES   REMARKS
IDAHO FALLS    CLOUDY    40  33  76 SW13      30.18R WCI  32          
POCATELLO      PTSUNNY   45  33  63 SW17      30.19R                  
REXBURG        CLOUDY    40  34  79 SW8       30.17R WCI  34          
$$

IDZ006-010-011-018-031-032-171700-
CENTRAL IDAHO MOUNTAINS

  
CITY           SKY/WX    TMP DP  RH WIND       PRES   REMARKS
MCCALL         CLOUDY    33  30  88 S5        30.17S WCI  29          
HAILEY         PTSUNNY   39  25  56 NW7       30.18  WCI  34          
STANLEY          N/A     31  23  72 CALM      30.19S                  
SALMON         PTSUNNY   49  29  46 SW14      30.12F                  
CHALLIS        CLOUDY    41  29  62 NW6       30.16R                  
$$

IDZ002-004-006-007-026-171700-
NORTHERN IDAHO

  
CITY           SKY/WX    TMP DP  RH WIND       PRES   REMARKS
LEWISTON       CLOUDY    54  39  57 E5        30.18R                  
LOWELL           N/A     45  44  97 CALM      30.21R                  
COEUR D'ALENE  PTSUNNY   50  39  66 W12       30.14R                  
MULLAN PASS    FOG       31  29  92 VRB5      30.06R VSB 3/4 WCI  26  
$$